This is the latest recevied weather packets stored in our database for station/object KE8DDT-7. If no packets are shown the sender has not sent any weather packets the latest 1 day(s).
| Time | Temp. | Humidity | Pressure | Rain* | Wind** | Luminosity | Snow |
|---|---|---|---|---|---|---|---|
| 1778103459 | 11.11° C | 46% | 1004.2 hPa | 0 mm | - | 176 W/m² | - |
| 1778103159 | 11.67° C | 46% | 1004.1 hPa | 0 mm | - | 193 W/m² | - |
| 1778102859 | 11.67° C | 46% | 1004.2 hPa | 0 mm | - | 186 W/m² | - |
| 1778102259 | 11.67° C | 45% | 1004.2 hPa | 0 mm | - | 221 W/m² | - |
| 1778101959 | 11.11° C | 47% | 1004.1 hPa | 0 mm | - | 244 W/m² | - |
| 1778101659 | 11.11° C | 46% | 1004.3 hPa | 0 mm | - | 190 W/m² | - |
| 1778101359 | 11.11° C | 48% | 1004.3 hPa | 0 mm | - | 211 W/m² | - |
| 1778101059 | 11.11° C | 47% | 1004.1 hPa | 0 mm | - | 225 W/m² | - |
| 1778100759 | 11.11° C | 45% | 1004.2 hPa | 0 mm | - | 171 W/m² | - |
| 1778100459 | 11.11° C | 46% | 1004.2 hPa | 0 mm | - | 179 W/m² | - |
| 1778099860 | 11.11° C | 45% | 1004.2 hPa | 0 mm | - | 239 W/m² | - |
| 1778099559 | 11.11° C | 46% | 1004.2 hPa | 0 mm | - | 251 W/m² | - |
| 1778099259 | 11.11° C | 46% | 1004.2 hPa | 0 mm | - | 283 W/m² | - |
| 1778098959 | 11.11° C | 46% | 1004.4 hPa | 0 mm | - | 241 W/m² | - |
| 1778097978 | 11.11° C | 46% | 1004.3 hPa | 0 mm | - | 250 W/m² | - |
| 1778095899 | 11.11° C | 45% | 1004.6 hPa | 0 mm | - | 309 W/m² | - |
| 1778094999 | 11.11° C | 46% | 1004.6 hPa | 0 mm | - | 325 W/m² | - |
| 1778094099 | 10.56° C | 46% | 1004.8 hPa | 0 mm | - | 327 W/m² | - |
| 1778093499 | 10.56° C | 47% | 1004.8 hPa | 0 mm | - | 260 W/m² | - |
| 1778091399 | 10.56° C | 48% | 1004.4 hPa | 0 mm | - | 299 W/m² | - |
| 1778090499 | 10.56° C | 49% | 1004.5 hPa | 0 mm | - | 371 W/m² | - |
| 1778087800 | 10° C | 53% | 1005.2 hPa | 0 mm | - | 371 W/m² | - |
| 1778085699 | 9.44° C | 52% | 1004.9 hPa | 0 mm | - | 575 W/m² | - |
| 1778085399 | 9.44° C | 53% | 1004.9 hPa | 0 mm | - | 452 W/m² | - |
| 1778085099 | 9.44° C | 52% | 1004.9 hPa | 0 mm | - | 524 W/m² | - |
* Rain latest hour (hover to see other rain measurements)
** Current wind speed in m/s (hover to see current wind gust speed)